TFL2PY EHRD-EGKK

Flight info

Callsign TFL2PY
Flight time 0h 44m
Altitude 26000
Route EHRD SID ABNED Z344 AMRIV Q63 ARREK Y4 TEBRA STAR EGKK
Aircraft E295/M-VGDW/C

Departure

Time 2026-05-06 12:36
Airport Rotterdam The Hague Airport (EHRD)

Arrival

Time 2026-05-06 13:20
Airport London Gatwick Airport (EGKK)
Time Latitude Longitude Altitude Speed Heading
2026-05-06 12:13 51.95087 4.43434 -4 ft 0 kts 327°
2026-05-06 12:30 51.95100 4.43420 -4 ft 6 kts 327°
2026-05-06 12:30 51.95132 4.43418 -4 ft 6 kts 19°
2026-05-06 12:30 51.95163 4.43475 -4 ft 10 kts 58°
2026-05-06 12:30 51.95216 4.43539 -5 ft 11 kts 348°
2026-05-06 12:31 51.95269 4.43473 -7 ft 4 kts 291°
2026-05-06 12:31 51.95252 4.43421 -6 ft 6 kts 236°
2026-05-06 12:31 51.95211 4.43325 -4 ft 11 kts 235°
2026-05-06 12:31 51.95175 4.43234 -5 ft 9 kts 239°
2026-05-06 12:32 51.95139 4.43124 -4 ft 10 kts 244°
2026-05-06 12:32 51.95119 4.43053 -3 ft 4 kts 246°
2026-05-06 12:32 51.95114 4.43032 -3 ft 0 kts 249°
2026-05-06 12:34 51.95135 4.42925 -2 ft 9 kts 326°
2026-05-06 12:34 51.95178 4.42880 -2 ft 6 kts 328°
2026-05-06 12:34 51.95213 4.42857 -1 ft 4 kts 358°
2026-05-06 12:35 51.95229 4.42876 1 ft 3 kts 52°
2026-05-06 12:35 51.95253 4.42933 -1 ft 22 kts 57°
2026-05-06 12:35 51.95543 4.43661 -6 ft 135 kts 57°
2026-05-06 12:35 51.96217 4.45386 354 ft 219 kts 56°
2026-05-06 12:36 51.97076 4.47575 1252 ft 244 kts 52°
2026-05-06 12:36 51.98465 4.49270 2227 ft 269 kts 20°
2026-05-06 12:36 52.00461 4.49458 2724 ft 316 kts 349°
2026-05-06 12:36 52.02420 4.47840 2893 ft 306 kts 320°
2026-05-06 12:37 52.03454 4.45055 3018 ft 278 kts 283°
2026-05-06 12:37 52.03273 4.42044 3610 ft 276 kts 247°
2026-05-06 12:37 52.02039 4.39712 4170 ft 278 kts 211°
2026-05-06 12:37 52.00195 4.38793 4664 ft 280 kts 186°
2026-05-06 12:38 51.98270 4.38247 4870 ft 283 kts 202°
2026-05-06 12:38 51.96719 4.36345 4941 ft 280 kts 236°
2026-05-06 12:38 51.95990 4.33471 4967 ft 276 kts 261°
2026-05-06 12:38 51.95681 4.30457 4984 ft 274 kts 264°
2026-05-06 12:39 51.95447 4.27416 5253 ft 270 kts 266°
2026-05-06 12:39 51.95241 4.24373 5722 ft 272 kts 266°
2026-05-06 12:39 51.95032 4.21323 6191 ft 274 kts 266°
2026-05-06 12:39 51.94814 4.18248 6632 ft 274 kts 265°
2026-05-06 12:40 51.94582 4.15181 7177 ft 275 kts 265°
2026-05-06 12:40 51.94330 4.12091 7737 ft 278 kts 264°
2026-05-06 12:40 51.94050 4.08976 8302 ft 280 kts 263°
2026-05-06 12:40 51.93757 4.05836 8885 ft 282 kts 263°
2026-05-06 12:41 51.93457 4.02683 9466 ft 285 kts 263°
2026-05-06 12:41 51.93148 3.99495 10035 ft 287 kts 262°
2026-05-06 12:41 51.92829 3.96204 10579 ft 315 kts 262°
2026-05-06 12:41 51.92469 3.92466 11129 ft 356 kts 262°
2026-05-06 12:42 51.92083 3.88477 11677 ft 358 kts 262°
2026-05-06 12:42 51.91691 3.84480 12247 ft 360 kts 262°
2026-05-06 12:42 51.91293 3.80458 12823 ft 362 kts 262°
2026-05-06 12:42 51.90894 3.76433 13464 ft 363 kts 262°
2026-05-06 12:43 51.90492 3.72376 14117 ft 366 kts 261°
2026-05-06 12:43 51.90087 3.68283 14751 ft 371 kts 262°
2026-05-06 12:43 51.89677 3.64140 15402 ft 374 kts 261°
2026-05-06 12:43 51.89260 3.59958 16065 ft 378 kts 261°
2026-05-06 12:44 51.88979 3.57156 16511 ft 381 kts 261°
2026-05-06 12:44 51.88554 3.52903 17202 ft 386 kts 261°
2026-05-06 12:44 51.88121 3.48594 17909 ft 390 kts 261°
2026-05-06 12:44 51.87679 3.44226 18566 ft 394 kts 261°
2026-05-06 12:45 51.87088 3.38405 19395 ft 397 kts 261°
2026-05-06 12:45 51.86784 3.35412 19834 ft 399 kts 261°
2026-05-06 12:45 51.85880 3.26548 21151 ft 405 kts 261°
2026-05-06 12:46 51.85358 3.22057 21845 ft 406 kts 255°
2026-05-06 12:46 51.84435 3.17700 22544 ft 411 kts 249°
2026-05-06 12:46 51.83327 3.13416 23269 ft 415 kts 246°
2026-05-06 12:46 51.82128 3.09150 23910 ft 419 kts 245°
2026-05-06 12:47 51.80872 3.04881 24523 ft 423 kts 244°
2026-05-06 12:47 51.79574 3.00599 25160 ft 426 kts 243°
2026-05-06 12:47 51.78241 2.96279 25668 ft 437 kts 243°
2026-05-06 12:47 51.76836 2.91786 25876 ft 459 kts 243°
2026-05-06 12:48 51.75350 2.87079 25907 ft 481 kts 243°
2026-05-06 12:48 51.73833 2.82302 25917 ft 471 kts 243°
2026-05-06 12:48 51.72335 2.77602 25935 ft 472 kts 243°
2026-05-06 12:48 51.70831 2.72892 25935 ft 472 kts 243°
2026-05-06 12:49 51.69612 2.68113 25945 ft 457 kts 251°
2026-05-06 12:49 51.68763 2.63167 25943 ft 459 kts 256°
2026-05-06 12:49 51.68097 2.58131 25942 ft 460 kts 258°
2026-05-06 12:49 51.67552 2.53056 25942 ft 460 kts 260°
2026-05-06 12:50 51.67073 2.48016 25945 ft 461 kts 261°
2026-05-06 12:50 51.66609 2.42839 25944 ft 461 kts 261°
2026-05-06 12:50 51.66166 2.37794 25943 ft 461 kts 261°
2026-05-06 12:50 51.65720 2.32688 25946 ft 461 kts 261°
2026-05-06 12:51 51.65267 2.27557 25947 ft 461 kts 261°
2026-05-06 12:51 51.64809 2.22444 25951 ft 461 kts 261°
2026-05-06 12:51 51.64343 2.17318 25951 ft 462 kts 261°
2026-05-06 12:51 51.63872 2.12202 25949 ft 461 kts 261°
2026-05-06 12:52 51.63397 2.07090 25947 ft 461 kts 261°
2026-05-06 12:52 51.62923 2.02037 25677 ft 464 kts 261°
2026-05-06 12:52 51.62442 1.96885 25219 ft 449 kts 261°
2026-05-06 12:52 51.61996 1.92095 24789 ft 425 kts 261°
2026-05-06 12:53 51.61459 1.87554 24355 ft 402 kts 253°
2026-05-06 12:53 51.60483 1.83468 23924 ft 382 kts 242°
2026-05-06 12:53 51.59057 1.79960 23497 ft 366 kts 233°
2026-05-06 12:53 51.57506 1.76813 22993 ft 352 kts 230°
2026-05-06 12:54 51.55942 1.73865 22492 ft 340 kts 229°
2026-05-06 12:54 51.54400 1.71060 22006 ft 330 kts 229°
2026-05-06 12:54 51.52889 1.68357 21533 ft 321 kts 229°
2026-05-06 12:54 51.51432 1.65718 21194 ft 309 kts 232°
2026-05-06 12:55 51.50224 1.62962 20925 ft 297 kts 238°
2026-05-06 12:55 51.49204 1.60143 20523 ft 294 kts 242°
2026-05-06 12:55 51.48271 1.57192 20077 ft 292 kts 245°
2026-05-06 12:55 51.47444 1.54278 19631 ft 289 kts 247°
2026-05-06 12:56 51.46668 1.51325 19188 ft 286 kts 248°
2026-05-06 12:56 51.45935 1.48366 18747 ft 284 kts 249°
2026-05-06 12:56 51.45234 1.45417 18353 ft 281 kts 250°
2026-05-06 12:56 51.44556 1.42500 18015 ft 280 kts 248°
2026-05-06 12:57 51.43405 1.39620 17666 ft 339 kts 230°
2026-05-06 12:57 51.41648 1.36748 17297 ft 370 kts 224°
2026-05-06 12:57 51.39727 1.34026 16947 ft 366 kts 222°
2026-05-06 12:57 51.37719 1.31367 16599 ft 377 kts 220°
2026-05-06 12:58 51.35689 1.28789 16253 ft 375 kts 219°
2026-05-06 12:58 51.33604 1.26215 15916 ft 373 kts 219°
2026-05-06 12:58 51.31564 1.23739 15582 ft 371 kts 218°
2026-05-06 12:58 51.29502 1.21260 15252 ft 370 kts 218°
2026-05-06 12:59 51.27448 1.18805 14918 ft 368 kts 218°
2026-05-06 12:59 51.25397 1.16371 14551 ft 367 kts 218°
2026-05-06 12:59 51.23350 1.13949 14221 ft 364 kts 218°
2026-05-06 12:59 51.21315 1.11557 13952 ft 364 kts 218°
2026-05-06 13:00 51.19274 1.09165 13668 ft 362 kts 218°
2026-05-06 13:00 51.17240 1.06785 13368 ft 361 kts 218°
2026-05-06 13:00 51.15222 1.04414 13061 ft 360 kts 218°
2026-05-06 13:00 51.13326 1.01918 12754 ft 357 kts 230°
2026-05-06 13:01 51.12139 0.98518 12457 ft 352 kts 252°
2026-05-06 13:01 51.11135 0.94971 12180 ft 353 kts 238°
2026-05-06 13:01 51.09697 0.91798 12062 ft 352 kts 239°
2026-05-06 13:01 51.08625 0.88359 11964 ft 336 kts 249°
2026-05-06 13:02 51.07787 0.85103 11849 ft 299 kts 250°
2026-05-06 13:02 51.07057 0.82160 11742 ft 282 kts 251°
2026-05-06 13:02 51.06346 0.79250 11627 ft 281 kts 251°
2026-05-06 13:02 51.05643 0.76365 11523 ft 279 kts 251°
2026-05-06 13:03 51.04940 0.73481 11423 ft 279 kts 251°
2026-05-06 13:03 51.04234 0.70594 11135 ft 282 kts 251°
2026-05-06 13:03 51.03523 0.67671 10648 ft 283 kts 251°
2026-05-06 13:03 51.02818 0.64781 10159 ft 279 kts 251°
2026-05-06 13:04 51.02115 0.61911 9704 ft 278 kts 252°
2026-05-06 13:04 51.01695 0.58961 9165 ft 273 kts 267°
2026-05-06 13:04 51.01569 0.55966 8647 ft 270 kts 270°
2026-05-06 13:04 51.01498 0.52997 8134 ft 268 kts 271°
2026-05-06 13:05 51.01448 0.50043 7608 ft 267 kts 271°
2026-05-06 13:05 51.01403 0.47156 7213 ft 250 kts 271°
2026-05-06 13:05 51.01356 0.44461 6727 ft 247 kts 271°
2026-05-06 13:05 51.01314 0.41750 6333 ft 243 kts 272°
2026-05-06 13:06 51.01271 0.39075 6159 ft 241 kts 271°
2026-05-06 13:06 51.01224 0.36428 6076 ft 240 kts 271°
2026-05-06 13:06 51.01182 0.33732 6036 ft 243 kts 271°
2026-05-06 13:06 51.01137 0.31036 6009 ft 244 kts 271°
2026-05-06 13:07 51.01091 0.28353 5996 ft 243 kts 271°
2026-05-06 13:07 51.01048 0.25662 5634 ft 243 kts 271°
2026-05-06 13:07 51.01000 0.22989 5279 ft 241 kts 271°
2026-05-06 13:07 51.00948 0.20345 5132 ft 240 kts 271°
2026-05-06 13:08 51.00897 0.17694 5054 ft 239 kts 271°
2026-05-06 13:08 51.00846 0.15036 5016 ft 241 kts 271°
2026-05-06 13:08 51.00799 0.12386 4982 ft 240 kts 271°
2026-05-06 13:08 51.00746 0.09747 4981 ft 240 kts 271°
2026-05-06 13:09 51.00693 0.07107 4673 ft 243 kts 271°
2026-05-06 13:09 51.00641 0.04401 4229 ft 241 kts 271°
2026-05-06 13:09 51.00590 0.01785 3790 ft 240 kts 271°
2026-05-06 13:09 51.00532 -0.00858 3349 ft 237 kts 271°
2026-05-06 13:10 51.00468 -0.03441 3151 ft 232 kts 271°
2026-05-06 13:10 51.00408 -0.05989 3060 ft 230 kts 271°
2026-05-06 13:10 51.00352 -0.08519 3015 ft 230 kts 271°
2026-05-06 13:10 51.00294 -0.11071 2997 ft 232 kts 271°
2026-05-06 13:11 51.00245 -0.13611 2978 ft 230 kts 271°
2026-05-06 13:11 51.00187 -0.16154 2979 ft 231 kts 272°
2026-05-06 13:11 51.00134 -0.18711 2988 ft 233 kts 271°
2026-05-06 13:11 51.00082 -0.21269 2993 ft 231 kts 272°
2026-05-06 13:12 51.00031 -0.23833 3007 ft 233 kts 272°
2026-05-06 13:12 50.99977 -0.26396 3011 ft 232 kts 272°
2026-05-06 13:12 50.99926 -0.28959 3002 ft 234 kts 271°
2026-05-06 13:12 50.99874 -0.31512 2989 ft 230 kts 271°
2026-05-06 13:13 50.99817 -0.34066 3019 ft 232 kts 271°
2026-05-06 13:13 50.99764 -0.36635 3022 ft 233 kts 270°
2026-05-06 13:13 50.99710 -0.39210 3017 ft 233 kts 272°
2026-05-06 13:13 50.99655 -0.41736 3015 ft 220 kts 270°
2026-05-06 13:14 50.99849 -0.43985 3030 ft 194 kts 306°
2026-05-06 13:14 51.00820 -0.45313 3142 ft 182 kts 332°
2026-05-06 13:14 51.01921 -0.46211 3091 ft 178 kts 335°
2026-05-06 13:14 51.03043 -0.47084 3041 ft 179 kts 337°
2026-05-06 13:15 51.04157 -0.47942 3041 ft 178 kts 336°
2026-05-06 13:15 51.05258 -0.48802 3032 ft 177 kts 336°
2026-05-06 13:15 51.06357 -0.49652 3032 ft 175 kts 335°
2026-05-06 13:15 51.07463 -0.50467 3029 ft 175 kts 340°
2026-05-06 13:16 51.08641 -0.50588 3034 ft 176 kts 23°
2026-05-06 13:16 51.09514 -0.49244 2863 ft 183 kts 56°
2026-05-06 13:16 51.10099 -0.47463 2798 ft 177 kts 61°
2026-05-06 13:16 51.10587 -0.45633 2963 ft 178 kts 66°
2026-05-06 13:17 51.11014 -0.43757 3205 ft 181 kts 66°
2026-05-06 13:17 51.11450 -0.41857 3244 ft 185 kts 67°
2026-05-06 13:17 51.11826 -0.39875 2882 ft 192 kts 74°
2026-05-06 13:17 51.12136 -0.37853 2511 ft 189 kts 71°
2026-05-06 13:18 51.12492 -0.35835 2127 ft 189 kts 70°
2026-05-06 13:18 51.12799 -0.33874 1876 ft 172 kts 73°
2026-05-06 13:18 51.13024 -0.32051 1703 ft 168 kts 75°
2026-05-06 13:18 51.13252 -0.30241 1491 ft 165 kts 73°
2026-05-06 13:19 51.13481 -0.28495 1257 ft 155 kts 71°
2026-05-06 13:19 51.13720 -0.26912 1005 ft 144 kts 71°
2026-05-06 13:19 51.13943 -0.25399 796 ft 131 kts 73°
2026-05-06 13:19 51.14127 -0.23984 679 ft 134 kts 73°
2026-05-06 13:20 51.14324 -0.22548 476 ft 134 kts 72°
2026-05-06 13:20 51.14514 -0.21130 248 ft 129 kts 73°
2026-05-06 13:20 51.14702 -0.19842 212 ft 101 kts 73°
2026-05-06 13:20 51.14789 -0.19194 210 ft 24 kts 77°
2026-05-06 13:21 51.14820 -0.18959 208 ft 26 kts 77°
2026-05-06 13:21 51.14842 -0.18800 212 ft 21 kts 77°
2026-05-06 13:21 51.14896 -0.18588 207 ft 22 kts 56°
2026-05-06 13:21 51.14976 -0.18432 205 ft 16 kts 50°
2026-05-06 13:22 51.15038 -0.18315 212 ft 11 kts 46°
2026-05-06 13:22 51.15126 -0.18197 206 ft 18 kts 19°
2026-05-06 13:22 51.15206 -0.18208 211 ft 7 kts 348°
2026-05-06 13:22 51.15208 -0.18208 211 ft 0 kts 348°
2026-05-06 13:23 51.15260 -0.18227 206 ft 11 kts 347°
2026-05-06 13:23 51.15339 -0.18256 214 ft 11 kts 346°
2026-05-06 13:23 51.15406 -0.18268 206 ft 10 kts 12°
2026-05-06 13:23 51.15447 -0.18149 215 ft 16 kts 76°
2026-05-06 13:24 51.15470 -0.17982 208 ft 13 kts 77°
2026-05-06 13:24 51.15487 -0.17859 209 ft 11 kts 77°
2026-05-06 13:24 51.15503 -0.17740 210 ft 11 kts 79°
2026-05-06 13:24 51.15522 -0.17599 210 ft 15 kts 78°
2026-05-06 13:25 51.15555 -0.17456 212 ft 14 kts 48°
2026-05-06 13:25 51.15597 -0.17321 209 ft 13 kts 75°
2026-05-06 13:25 51.15618 -0.17184 210 ft 12 kts 77°
2026-05-06 13:25 51.15634 -0.17079 212 ft 8 kts 74°
2026-05-06 13:26 51.15645 -0.17019 207 ft 4 kts 75°
2026-05-06 13:26 51.15648 -0.16998 207 ft 3 kts 81°
2026-05-06 13:26 51.15651 -0.16970 209 ft 6 kts 79°
2026-05-06 13:26 51.15663 -0.16864 215 ft 8 kts 78°
2026-05-06 13:27 51.15674 -0.16785 212 ft 5 kts 77°
2026-05-06 13:27 51.15689 -0.16746 208 ft 3 kts 32°
2026-05-06 13:27 51.15718 -0.16747 207 ft 6 kts 351°
2026-05-06 13:27 51.15743 -0.16754 207 ft 2 kts 349°
2026-05-06 13:28 51.15763 -0.16761 207 ft 0 kts 348°